SCOUT A DEB, 2777

Orbit data source: Space-Track

SCOUT A DEB, 2777 is space debris in LEO originally from a launch on Fri, 14 Apr 1967 UTC launched from the Air Force Western Test Range (AFWTR). Debris objects in space refer to the collection of defunct objects orbiting the Earth. Examples of debris include non-operational satellites, rocket bodies, and fragments generated from explosions, collisions, or faulty payload assembly.

Loading next visibility...
Identifier
2777, 1967-034C
Orbit
LEO
Country
Flag of USUS
Related business
Manufacturer
Unknown
Mission
Spacecraft
Bus & Motor
Unknown
Mass
Unknown
Launch date (UTC)
1967-04-14 (59 years ago)
Launch vehicle
Unknown
Launch site
Air Force Western Test Range (AFWTR)
Object type
Payload
Rocket body
Debris
Shape & HBR
Unknown shape, 0.1 m
Radar Cross Section
Small (<0.1 m²)

Expand to show TLE details & history
Last TLE update: 3 days ago

TLE from 3 days ago
0 SCOUT A DEB
1 02777U 67034C   26032.55932651  .00000898  00000-0  50543-3 0  9997
2 02777  90.2812 241.0549 0130530 177.8198 182.3582 14.05602682990411
Epoch: 2026-02-01T13:25Z
TLE epoch observation values (Epoch: 2026-02-01T13:25:25.810Z)
Latitude
-0.00004°
Longitude
-92.06987°
Altitude
972.103 km
Speed
7.317 km/s
True Right ascension
16h 04m 13s
True Declination
0° 00' 00"
Sunlit
Object was in daylight at epoch
Visualization orbit readout
Latitude
Unknown
Longitude
Unknown
Altitude
Unknown
Speed
Unknown
Apparent Right ascension
Unknown
Apparent Declination
Unknown
Sunlit
N/A
Visualization observer readout
Local Sidereal Time
10:06:22
Azimuth
Unknown
Elevation
Unknown
Doppler factor
Unknown
Orbital elements
Apogee altitude
966.056 km
Perigee altitude
776.799 km
Semi-major axis
7,249.564 km
Eccentricity
0.01305
Inclination
90.2812°
RAAN
241.0549°
Arg. of periapsis
177.8198°
True anomaly
182.29764°
Mean anomaly
182.3582°
Eccentric anomaly
182.32782°
Mean motion
3.51621 °/min
Orbital period
102.38 mins
BSTAR
0.00050543
Loading maneuver chart data...
Computing Atmospheric mass density...
Loading historical data...
Loading historical data...
Loading historical data...
Loading historical data...
Loading historical data...
Loading historical data...
Loading historical data...

Documentation

Showing up to 5 results
|